STARLINK-1653, 46352

Orbit data source: Space-Track

STARLINK-1653, 46352 is a payload satellite owned by SpaceX/Seattle (US) in LEO that was launched on Thu, 03 Sep 2020 UTC via an FALCON 9 launch vehicle from the Air Force Eastern Test Range (AFETR). Payloads include a variety of satellites, spacecraft, and rockets equipped with specific instruments for various scientific and technological missions. These include communications satellites like Starlink; space stations such as the ISS; scientific satellites like the Hubble; Earth observation satellites from companies like Planet Labs, Umbra, and HawkEye 360; GPS; miniature CubeSats for education and research; and military/defense satellites.

Loading next visibility...
STARLINK-1653 details
Identifier
46352, 2020-062AD
Orbit
LEO
Last TLE update18 hours ago
Origin
Flag of USSpaceX/Seattle (US)
ManufacturerSpaceX/Seattle
MissionOperational Commercial Communications
Bus & MotorSTARLINK, Unknown motor
Mass260 kg wet, ~248 kg dry
Launch date (UTC)
2020-09-03 (4 years ago)
Launch vehicle
FALCON 9
Launch site
Air Force Eastern Test Range (AFETR)
Object type
Payload
Rocket body
Debris
Shape & HBRBox + 1 Pan, 8.86 m
Radar Cross Section13.562 m², Large (>1 m²)

Expand to show TLE details & history

TLE from 18 hours ago
0 STARLINK-1653
1 46352U 20062AD  24360.66076215  .00009605  00000-0  66300-3 0  9996
2 46352  53.0536 167.4844 0001562 122.6583 237.4556 15.06389953238609
Epoch: 2024-12-25T15:51Z
Definitive object data (Epoch: 2024-12-25T15:51:29.849Z)
Latitude-0.0001°
Longitude-165.04136°
Altitude548.703 km
Speed7.588 km/s
True Right ascension11h 09m 56s
True Declination0° 00' 00"
Sunlit
Object was in daylight at TLE epoch
Visualization TLE readout
Latitude-16.70005°
Longitude24.48308°
Altitude551.442 km
Speed7.587 km/s
Apparent Right ascension22h 52m 36s
Apparent Declination-28° 38' 20"
Sunlit
Object is in daylight
Visualization observer readout
Local Sidereal Time09:36:51
Azimuth300.092° NW
Elevation-70.778°
Doppler factor1
Orbital elements
Apogee altitude548.595 km
Perigee altitude546.431 km
Semi-major axis6,925.65 km
Eccentricity0.0001562
Inclination53.0536°
RAAN167.4844°
Arg. of periapsis122.6583°
True anomaly237.44051°
Mean anomaly237.4556°
Eccentric anomaly237.44806°
Mean motion3.76576 °/min
BSTAR0.000663
Orbital period95.6 mins
Loading maneuver chart data...
Loading historical data...
Loading historical data...
Loading historical data...
Loading historical data...
Loading historical data...
Loading historical data...
Loading historical data...

STARLINK-1653 Visibility forecast

Observer location: undefined°, undefined

Span
Click to sort rows by Start time (UTC) header in descending order
Start Az.
Max El. time (UTC)
Max El. Az.
Max El.
End time (UTC)
End Az.
4 mins2024-12-26 12:42:42.057Z160.18° S2024-12-26 12:44:42.057Z127.436° SE16.234°2024-12-26 12:46:42.057Z94.32° ESE
6 mins2024-12-26 14:21:42.057Z246.342° WSW2024-12-26 14:23:42.057Z306.783° NW42.27°2024-12-26 14:27:42.057Z45.267° ENE
4 mins2024-12-26 16:02:42.057Z317.852° NNW2024-12-26 16:03:42.057Z335.948° NNW17.302°2024-12-26 16:06:42.057Z24.827° NE
5 mins2024-12-26 19:23:42.057Z345.962° N2024-12-26 19:25:42.057Z28.112° NE22.631°2024-12-26 19:28:42.057Z78.888° E
6 mins2024-12-26 21:02:42.057Z301.381° NW2024-12-26 21:05:42.057Z192.28° SSW41.767°2024-12-26 21:08:42.057Z142.468° SSE
|